Location: Hampton Plantation State Historic Site
(33.1998°N, 79.4353°W)
Time: 03:58:52
(UTC-05:00)

Hubble Space Telescope - Visible Passes

Search period start: 01 December 2020 00:00
Search period end: 11 December 2020 00:00
Orbit: 536 x 540 km, 28.5° (Epoch: 30 November)

Date Brightness Start Highest point End Pass type
(mag) Time Alt. Az. Time Alt. Az. Time Alt. Az.
01 Dec 2.8 18:07:32 10° SSW 18:10:24 18° SSE 18:13:03 11° ESE visible
01 Dec 3.4 19:47:19 10° WSW 19:48:23 16° SW 19:48:23 16° SW visible
02 Dec 2.6 17:56:21 10° SSW 17:59:32 22° SSE 18:02:43 10° ESE visible
02 Dec 3.0 19:36:26 10° WSW 19:38:14 23° SW 19:38:14 23° SW visible
03 Dec 2.4 17:45:14 10° SW 17:48:40 25° SSE 17:52:05 10° ESE visible
03 Dec 2.4 19:25:35 10° WSW 19:28:04 30° SW 19:28:04 30° SW visible
04 Dec 2.2 17:34:13 10° SW 17:37:49 29° SSE 17:41:24 10° ESE visible
04 Dec 1.9 19:14:45 10° WSW 19:17:55 38° SSW 19:17:55 38° SSW visible
05 Dec 1.5 19:03:56 10° WSW 19:07:47 43° S 19:07:47 43° S visible
06 Dec 1.5 18:53:07 10° WSW 18:57:01 42° S 18:57:41 38° SSE visible
07 Dec 1.8 18:42:19 10° WSW 18:46:11 39° S 18:47:38 29° SE visible
08 Dec 1.9 18:31:32 10° WSW 18:35:21 37° S 18:37:40 20° SE visible
09 Dec 2.2 18:20:47 10° WSW 18:24:31 33° S 18:27:47 12° SE visible
09 Dec 3.9 20:02:54 10° WSW 20:03:08 11° SW 20:03:08 11° SW visible
10 Dec 2.4 18:10:02 10° WSW 18:13:39 30° SSW 18:17:16 10° SE visible
10 Dec 3.8 19:52:49 10° SW 19:53:23 11° SW 19:53:23 11° SW visible
